STARLINK-5453, 54773

Orbit data source: Space-Track

STARLINK-5453, 54773 is a payload satellite owned by SpaceX/Seattle (US) in LEO that was launched on Sat, 17 Dec 2022 UTC via an FALCON 9 launch vehicle from the Air Force Eastern Test Range (AFETR). Payload-class satellites include a variety of spacecraft equipped with specific instruments for various scientific and technological missions. These include communications satellites like Starlink; space stations such as the ISS; scientific satellites like the Hubble; Earth observation satellites from companies like Planet Labs, Umbra, and HawkEye 360; GPS; miniature CubeSats for education and research; and military/defense satellites.

Loading next visibility...
Identifier
54773, 2022-175R
Orbit
LEO
Country
Flag of USUS
Related business
Manufacturer
SpaceX/Seattle
Mission
Operational Commercial Communications
Bus & Motor
STARLINK, Unknown motor
Mass
305 kg wet, ~290 kg dry
Launch date (UTC)
2022-12-17 (4 years ago)
Launch vehicle
FALCON 9
Launch site
Air Force Eastern Test Range (AFETR)
Object type
Payload
Rocket body
Debris
Shape & HBR
Box + 1 Pan, 10.1 m
Radar Cross Section
13.562 m², Large (>1 m²)

Expand to show TLE details & history
Last TLE update: 3 days ago

TLE from 3 days ago
0 STARLINK-5453
1 54773U 22175R   26170.78464272 -.00000793  00000-0 -31754-4 0  9994
2 54773  53.1606 305.5607 0001256  81.9996 278.1138 15.08835062195330
Epoch: 2026-06-19T18:49Z
TLE epoch observation values (Epoch: 2026-06-19T18:49:53.131Z)
Latitude
0.00001°
Longitude
115.08068°
Altitude
540.527 km
Speed
7.593 km/s
True Right ascension
20h 22m 14s
True Declination
0° 00' 00"
Sunlit
Object was in full shadow at epoch
Visualization orbit readout
Latitude
Unknown
Longitude
Unknown
Altitude
Unknown
Speed
Unknown
Apparent Right ascension
Unknown
Apparent Declination
Unknown
Sunlit
N/A
Visualization observer readout
Local Sidereal Time
00:39:43
Azimuth
Unknown
Elevation
Unknown
Doppler factor
Unknown
Orbital elements
Apogee altitude
540.881 km
Perigee altitude
539.144 km
Semi-major axis
6,918.15 km
Eccentricity
0.00013
Inclination
53.1606°
RAAN
305.5607°
Arg. of periapsis
81.9996°
True anomaly
278.09955°
Mean anomaly
278.1138°
Eccentric anomaly
278.10668°
Mean motion
3.77188 °/min
Orbital period
95.44 mins
BSTAR
-0.000031754
Loading maneuver chart data...
Computing Atmospheric mass density...
Loading historical data...
Loading historical data...
Loading historical data...
Loading historical data...
Loading historical data...
Loading historical data...
Loading historical data...

Documentation

Showing up to 5 results
|